| time (UTC) | temp F | wind direction | speed knots | gust knots | rain 1hr in | rain 24hr in | rain mn in | humidity % | barometer mb |
| 20260507213612 | 59 | 80 | 0.0 | 4.3 | 0.00 | 0.36 | 0.36 | 69 | 1004.9 |
| 20260507213110 | 59 | 151 | 3.5 | 7.0 | 0.00 | 0.36 | 0.36 | 69 | 1005.0 |
| 20260507212606 | 59 | 151 | 0.9 | 4.3 | 0.00 | 0.36 | 0.36 | 67 | 1005.2 |
| 20260507212102 | 59 | 166 | 4.3 | 7.8 | 0.00 | 0.36 | 0.36 | 66 | 1004.9 |
| 20260507211559 | 59 | 125 | 5.2 | 6.1 | 0.00 | 0.36 | 0.36 | 64 | 1005.0 |
| 20260507211055 | 59 | 120 | 5.2 | 6.1 | 0.00 | 0.36 | 0.36 | 64 | 1005.1 |
| 20260507210553 | 59 | 98 | 6.1 | 9.6 | 0.00 | 0.36 | 0.36 | 63 | 1005.1 |
| 20260507210049 | 60 | 119 | 1.7 | 5.2 | 0.00 | 0.36 | 0.36 | 62 | 1005.0 |
| 20260507205546 | 58 | 101 | 4.3 | 12.2 | 0.00 | 0.36 | 0.36 | 62 | 1004.9 |
| 20260507205042 | 58 | 125 | 2.6 | 5.2 | 0.00 | 0.36 | 0.36 | 61 | 1004.9 |
| 20260507204538 | 58 | 67 | 4.3 | 8.7 | 0.00 | 0.36 | 0.36 | 62 | 1005.2 |
| 20260507204036 | 59 | 170 | 2.6 | 4.3 | 0.00 | 0.36 | 0.36 | 62 | 1004.9 |
| 20260507203534 | 58 | 105 | 6.1 | 9.6 | 0.00 | 0.36 | 0.36 | 61 | 1004.9 |
| 20260507203031 | 58 | 228 | 1.7 | 7.8 | 0.00 | 0.36 | 0.36 | 60 | 1004.8 |
| 20260507202527 | 58 | 103 | 9.6 | 9.6 | 0.00 | 0.36 | 0.36 | 60 | 1004.7 |
| 20260507202023 | 58 | 151 | 2.6 | 7.0 | 0.00 | 0.36 | 0.36 | 60 | 1005.0 |
| 20260507201519 | 57 | 92 | 6.1 | 11.3 | 0.00 | 0.36 | 0.36 | 60 | 1004.9 |
| 20260507201015 | 59 | 95 | 5.2 | 5.2 | 0.00 | 0.36 | 0.36 | 59 | 1004.7 |
| 20260507200511 | 59 | 151 | 0.9 | 11.3 | 0.00 | 0.36 | 0.36 | 60 | 1004.9 |
| 20260507200007 | 59 | 153 | 3.5 | 5.2 | 0.00 | 0.36 | 0.36 | 60 | 1005.2 |
| 20260507195504 | 58 | 90 | 4.3 | 7.8 | 0.00 | 0.36 | 0.36 | 60 | 1005.0 |
| 20260507195002 | 59 | 151 | 2.6 | 5.2 | 0.00 | 0.36 | 0.36 | 60 | 1005.2 |
| 20260507194458 | 58 | 142 | 2.6 | 7.8 | 0.00 | 0.36 | 0.36 | 61 | 1005.0 |
| 20260507193954 | 58 | 129 | 7.0 | 9.6 | 0.00 | 0.36 | 0.36 | 62 | 1005.3 |
| 20260507193452 | 57 | 161 | 3.5 | 8.7 | 0.00 | 0.36 | 0.36 | 60 | 1005.4 |
| 20260507192948 | 57 | 90 | 0.0 | 10.4 | 0.00 | 0.36 | 0.36 | 62 | 1005.4 |
| 20260507192444 | 58 | 99 | 5.2 | 5.2 | 0.00 | 0.36 | 0.36 | 62 | 1005.4 |
| 20260507191941 | 56 | 112 | 4.3 | 9.6 | 0.00 | 0.36 | 0.36 | 63 | 1005.3 |
| 20260507191437 | 57 | 109 | 4.3 | 11.3 | 0.00 | 0.36 | 0.36 | 62 | 1005.6 |
| 20260507190934 | 57 | 60 | 1.7 | 7.8 | 0.00 | 0.36 | 0.36 | 62 | 1005.5 |
| 20260507190432 | 59 | 84 | 2.6 | 6.1 | 0.00 | 0.36 | 0.36 | 60 | 1005.5 |
| 20260507185931 | 58 | 66 | 3.5 | 14.8 | 0.00 | 0.36 | 0.36 | 61 | 1005.6 |
| 20260507185427 | 59 | 168 | 0.9 | 7.0 | 0.00 | 0.36 | 0.36 | 62 | 1005.5 |
| 20260507184924 | 59 | 166 | 3.5 | 6.1 | 0.00 | 0.36 | 0.36 | 61 | 1005.7 |
| 20260507184422 | 58 | 158 | 5.2 | 9.6 | 0.00 | 0.36 | 0.36 | 59 | 1005.9 |
| 20260507183919 | 58 | 132 | 1.7 | 7.8 | 0.00 | 0.36 | 0.36 | 62 | 1005.8 |
| 20260507183416 | 58 | 72 | 3.5 | 11.3 | 0.00 | 0.36 | 0.36 | 62 | 1005.6 |
| 20260507182914 | 58 | 101 | 1.7 | 10.4 | 0.00 | 0.36 | 0.36 | 63 | 1005.8 |
| 20260507182409 | 58 | 138 | 2.6 | 7.0 | 0.00 | 0.36 | 0.36 | 64 | 1006.1 |
| 20260507181906 | 58 | 85 | 1.7 | 7.0 | 0.00 | 0.36 | 0.36 | 63 | 1005.8 |
| 20260507181402 | 58 | 101 | 2.6 | 5.2 | 0.00 | 0.36 | 0.36 | 63 | 1005.9 |
| 20260507180859 | 58 | 162 | 2.6 | 8.7 | 0.00 | 0.36 | 0.36 | 64 | 1006.0 |
| 20260507180355 | 59 | 206 | 1.7 | 4.3 | 0.00 | 0.36 | 0.36 | 65 | 1005.7 |
| 20260507175851 | 57 | 206 | 2.6 | 3.5 | 0.00 | 0.36 | 0.36 | 68 | 1006.3 |
| 20260507175348 | 56 | 119 | 1.7 | 6.1 | 0.00 | 0.36 | 0.36 | 67 | 1006.1 |
| 20260507174846 | 57 | 170 | 3.5 | 7.0 | 0.00 | 0.36 | 0.36 | 65 | 1006.2 |
| 20260507174343 | 58 | 140 | 2.6 | 7.8 | 0.00 | 0.36 | 0.36 | 63 | 1006.2 |
| 20260507173840 | 58 | 90 | 2.6 | 7.8 | 0.00 | 0.36 | 0.36 | 64 | 1006.0 |
| 20260507173337 | 59 | 163 | 3.5 | 5.2 | 0.00 | 0.36 | 0.36 | 61 | 1006.1 |
| 20260507172833 | 57 | 102 | 9.6 | 10.4 | 0.00 | 0.36 | 0.36 | 63 | 1006.2 |
| 20260507172330 | 58 | 109 | 4.3 | 8.7 | 0.00 | 0.36 | 0.36 | 67 | 1006.3 |
| 20260507171826 | 57 | 38 | 2.6 | 9.6 | 0.00 | 0.36 | 0.36 | 62 | 1006.2 |
| 20260507171323 | 58 | 96 | 3.5 | 6.1 | 0.00 | 0.36 | 0.36 | 68 | 1006.2 |
| 20260507170820 | 56 | 104 | 5.2 | 6.1 | 0.00 | 0.36 | 0.36 | 65 | 1006.6 |
| 20260507170317 | 56 | 71 | 4.3 | 7.0 | 0.00 | 0.36 | 0.36 | 64 | 1006.6 |
| 20260507165813 | 56 | 66 | 3.5 | 5.2 | 0.00 | 0.36 | 0.36 | 62 | 1006.5 |
| 20260507165309 | 57 | 261 | 0.0 | 7.8 | 0.00 | 0.36 | 0.36 | 64 | 1006.5 |
| 20260507164805 | 56 | 155 | 3.5 | 6.1 | 0.00 | 0.36 | 0.36 | 65 | 1006.6 |
| 20260507164302 | 57 | 99 | 2.6 | 6.1 | 0.00 | 0.36 | 0.36 | 62 | 1006.6 |
| 20260507163759 | 56 | 90 | 5.2 | 6.1 | 0.00 | 0.36 | 0.36 | 64 | 1006.6 |
| 20260507163257 | 56 | 75 | 3.5 | 4.3 | 0.00 | 0.36 | 0.36 | 69 | 1006.8 |
| 20260507162753 | 56 | 72 | 3.5 | 5.2 | 0.00 | 0.36 | 0.36 | 67 | 1006.9 |
| 20260507162249 | 55 | 46 | 2.6 | 8.7 | 0.00 | 0.36 | 0.36 | 69 | 1006.8 |
| 20260507161746 | 57 | 120 | 5.2 | 7.8 | 0.00 | 0.36 | 0.36 | 66 | 1006.9 |
| 20260507161242 | 57 | 70 | 1.7 | 5.2 | 0.00 | 0.36 | 0.36 | 69 | 1007.0 |
| 20260507160738 | 55 | 17 | 0.0 | 5.2 | 0.00 | 0.36 | 0.36 | 69 | 1007.0 |
| 20260507160235 | 54 | 47 | 2.6 | 9.6 | 0.00 | 0.36 | 0.36 | 70 | 1007.1 |
| 20260507155731 | 55 | 57 | 5.2 | 9.6 | 0.00 | 0.36 | 0.36 | 68 | 1007.4 |
| 20260507155227 | 55 | 52 | 7.0 | 8.7 | 0.00 | 0.36 | 0.36 | 67 | 1007.4 |
| 20260507154724 | 56 | 45 | 2.6 | 7.8 | 0.00 | 0.36 | 0.36 | 69 | 1007.4 |
| 20260507154221 | 57 | 48 | 4.3 | 6.1 | 0.00 | 0.36 | 0.36 | 70 | 1007.4 |
| 20260507153718 | 55 | 67 | 5.2 | 10.4 | 0.00 | 0.36 | 0.36 | 69 | 1007.5 |
| 20260507153214 | 56 | 90 | 5.2 | 8.7 | 0.00 | 0.36 | 0.36 | 72 | 1007.4 |
| 20260507152711 | 56 | 58 | 8.7 | 9.6 | 0.00 | 0.36 | 0.36 | 66 | 1007.2 |
| 20260507152207 | 57 | 68 | 3.5 | 7.8 | 0.00 | 0.36 | 0.36 | 69 | 1007.6 |
| 20260507151703 | 58 | 55 | 4.3 | 7.8 | 0.00 | 0.36 | 0.36 | 72 | 1007.6 |
| 20260507151200 | 57 | 49 | 5.2 | 9.6 | 0.00 | 0.36 | 0.36 | 67 | 1007.6 |
| 20260507150657 | 58 | 82 | 7.0 | 8.7 | 0.00 | 0.36 | 0.36 | 63 | 1007.4 |
| 20260507150154 | 60 | 18 | 1.7 | 2.6 | 0.00 | 0.36 | 0.36 | 66 | 1007.6 |
| 20260507145649 | 59 | 5 | 1.7 | 7.8 | 0.00 | 0.36 | 0.36 | 65 | 1007.6 |
| 20260507145147 | 59 | 358 | 3.5 | 3.5 | 0.00 | 0.36 | 0.36 | 68 | 1007.6 |
| 20260507144643 | 57 | 339 | 4.3 | 8.7 | 0.00 | 0.36 | 0.36 | 63 | 1007.7 |
| 20260507144141 | 57 | 21 | 2.6 | 6.1 | 0.00 | 0.36 | 0.36 | 65 | 1007.8 |
| 20260507143637 | 58 | 16 | 1.7 | 4.3 | 0.00 | 0.36 | 0.36 | 70 | 1007.7 |
| 20260507143135 | 57 | 335 | 4.3 | 7.8 | 0.00 | 0.36 | 0.36 | 66 | 1007.9 |
| 20260507142630 | 56 | 339 | 2.6 | 7.8 | 0.00 | 0.36 | 0.36 | 71 | 1007.8 |
| 20260507142127 | 57 | 331 | 5.2 | 7.8 | 0.00 | 0.36 | 0.36 | 71 | 1007.8 |
| 20260507141623 | 56 | 322 | 4.3 | 8.7 | 0.00 | 0.36 | 0.36 | 72 | 1008.1 |
| 20260507141120 | 57 | 320 | 2.6 | 3.5 | 0.00 | 0.36 | 0.36 | 75 | 1008.0 |
| 20260507140617 | 56 | 327 | 4.3 | 10.4 | 0.00 | 0.36 | 0.36 | 74 | 1008.0 |
| 20260507140114 | 56 | 321 | 5.2 | 7.8 | 0.00 | 0.36 | 0.36 | 76 | 1008.0 |
| 20260507135611 | 57 | 349 | 0.9 | 5.2 | 0.00 | 0.36 | 0.36 | 79 | 1007.8 |
| 20260507135109 | 55 | 344 | 0.0 | 4.3 | 0.00 | 0.36 | 0.36 | 79 | 1007.9 |
| 20260507134605 | 55 | 336 | 1.7 | 3.5 | 0.00 | 0.36 | 0.36 | 80 | 1008.1 |
| 20260507134101 | 54 | 337 | 3.5 | 6.1 | 0.00 | 0.36 | 0.36 | 83 | 1008.1 |
| 20260507133557 | 53 | 346 | 3.5 | 5.2 | 0.00 | 0.36 | 0.36 | 85 | 1007.9 |
| 20260507133055 | 52 | 354 | 2.6 | 4.3 | 0.00 | 0.36 | 0.36 | 87 | 1007.8 |
| 20260507132551 | 52 | 277 | 3.5 | 5.2 | 0.00 | 0.36 | 0.36 | 89 | 1008.1 |
| 20260507132048 | 52 | 42 | 2.6 | 4.3 | 0.00 | 0.36 | 0.36 | 91 | 1007.9 |
| 20260507131544 | 53 | 288 | 2.6 | 3.5 | 0.00 | 0.36 | 0.36 | 92 | 1008.0 |
| 20260507131042 | 51 | 340 | 0.0 | 3.5 | 0.00 | 0.36 | 0.36 | 92 | 1008.0 |
| 20260507130539 | 51 | 277 | 0.0 | 2.6 | 0.00 | 0.36 | 0.36 | 93 | 1007.9 |
| 20260507130037 | 50 | 180 | 0.0 | 1.7 | 0.00 | 0.36 | 0.36 | 93 | 1008.2 |
| 20260507125535 | 50 | 311 | 1.7 | 4.3 | 0.00 | 0.36 | 0.36 | 93 | 1007.9 |
| 20260507125032 | 51 | 180 | 0.9 | 1.7 | 0.00 | 0.36 | 0.36 | 94 | 1008.1 |
| 20260507124528 | 50 | 337 | 0.9 | 4.3 | 0.00 | 0.36 | 0.36 | 93 | 1008.2 |
| 20260507124026 | 50 | 279 | 0.0 | 2.6 | 0.00 | 0.36 | 0.36 | 94 | 1008.3 |
| 20260507123524 | 50 | 192 | 1.7 | 5.2 | 0.00 | 0.36 | 0.36 | 94 | 1008.2 |
| 20260507123021 | 50 | 259 | 1.7 | 2.6 | 0.00 | 0.36 | 0.36 | 94 | 1008.3 |
| 20260507122516 | 49 | 192 | 1.7 | 3.5 | 0.00 | 0.36 | 0.36 | 94 | 1008.4 |
| 20260507122012 | 49 | 204 | 1.7 | 3.5 | 0.00 | 0.36 | 0.36 | 94 | 1008.1 |
| 20260507121508 | 49 | 241 | 1.7 | 2.6 | 0.00 | 0.36 | 0.36 | 94 | 1007.8 |
| 20260507121004 | 48 | 319 | 1.7 | 3.5 | 0.00 | 0.36 | 0.36 | 94 | 1007.9 |
| 20260507120500 | 48 | 340 | 0.0 | 2.6 | 0.00 | 0.36 | 0.36 | 94 | 1007.7 |
| 20260507115957 | 48 | 261 | 0.0 | 1.7 | 0.05 | 0.36 | 0.36 | 94 | 1008.0 |
| 20260507115453 | 48 | 237 | 0.0 | 0.9 | 0.02 | 0.36 | 0.36 | 94 | 1007.7 |
| 20260507114949 | 47 | 180 | 0.0 | 1.7 | 0.02 | 0.35 | 0.35 | 94 | 1007.9 |
| 20260507114445 | 47 | 180 | 0.9 | 1.7 | 0.12 | 0.35 | 0.35 | 94 | 1007.9 |
| 20260507113943 | 47 | 294 | 0.0 | 2.6 | 0.12 | 0.35 | 0.35 | 94 | 1008.0 |
| 20260507113440 | 47 | 23 | 0.0 | 2.6 | 0.02 | 0.34 | 0.34 | 94 | 1007.5 |
| 20260507112937 | 47 | 345 | 0.0 | 3.5 | 0.05 | 0.33 | 0.33 | 93 | 1007.7 |
| 20260507112435 | 47 | 345 | 0.0 | 2.6 | 0.05 | 0.33 | 0.33 | 94 | 1007.7 |
| 20260507111931 | 47 | 307 | 1.7 | 2.6 | 0.00 | 0.32 | 0.32 | 93 | 1008.0 |
| 20260507111429 | 47 | 300 | 1.7 | 1.7 | 0.00 | 0.32 | 0.32 | 94 | 1008.1 |
| 20260507110925 | 48 | 101 | 0.0 | 2.6 | 0.00 | 0.32 | 0.32 | 93 | 1008.2 |
| 20260507110421 | 48 | 236 | 0.0 | 3.5 | 0.02 | 0.32 | 0.32 | 94 | 1007.5 |
| 20260507105918 | 47 | 3 | 1.7 | 6.1 | 0.07 | 0.32 | 0.32 | 94 | 1007.2 |
| 20260507105415 | 47 | 335 | 2.6 | 3.5 | 0.05 | 0.32 | 0.32 | 93 | 1007.4 |
| 20260507104911 | 47 | 334 | 1.7 | 6.1 | 0.02 | 0.31 | 0.31 | 94 | 1007.5 |
| 20260507104408 | 47 | 355 | 2.6 | 6.1 | 0.02 | 0.31 | 0.31 | 94 | 1007.5 |
| 20260507103904 | 48 | 341 | 2.6 | 3.5 | 0.05 | 0.31 | 0.31 | 94 | 1007.7 |
| 20260507103401 | 48 | 319 | 1.7 | 4.3 | 0.05 | 0.31 | 0.31 | 94 | 1007.8 |
| 20260507102857 | 49 | 335 | 5.2 | 5.2 | 0.05 | 0.30 | 0.30 | 94 | 1007.9 |
| 20260507102353 | 50 | 350 | 0.0 | 3.5 | 0.07 | 0.30 | 0.30 | 94 | 1008.1 |
| 20260507101850 | 50 | 354 | 3.5 | 3.5 | 0.07 | 0.29 | 0.29 | 94 | 1007.6 |
| 20260507101350 | 50 | 336 | 1.7 | 4.3 | 0.07 | 0.29 | 0.29 | 94 | 1007.4 |
| 20260507100848 | 50 | 219 | 0.0 | 3.5 | 0.02 | 0.28 | 0.28 | 94 | 1007.4 |
| 20260507100345 | 50 | 340 | 0.0 | 3.5 | 0.02 | 0.28 | 0.28 | 94 | 1007.3 |
| 20260507095843 | 50 | 257 | 0.0 | 5.2 | 0.02 | 0.28 | 0.28 | 94 | 1007.5 |
| 20260507095339 | 50 | 245 | 3.5 | 4.3 | 0.02 | 0.27 | 0.27 | 94 | 1007.3 |
| 20260507094837 | 50 | 356 | 2.6 | 4.3 | 0.05 | 0.27 | 0.27 | 94 | 1007.0 |
| 20260507094333 | 51 | 345 | 1.7 | 2.6 | 0.02 | 0.27 | 0.27 | 94 | 1007.3 |
| 20260507093830 | 51 | 14 | 0.9 | 2.6 | 0.02 | 0.26 | 0.26 | 94 | 1007.1 |
| 20260507093329 | 51 | 286 | 1.7 | 4.3 | 0.05 | 0.26 | 0.26 | 94 | 1006.7 |
| 20260507092826 | 51 | 270 | 0.0 | 5.2 | 0.02 | 0.26 | 0.26 | 94 | 1007.2 |
| 20260507092323 | 51 | 286 | 0.0 | 1.7 | 0.00 | 0.26 | 0.26 | 94 | 1007.3 |
| 20260507091819 | 51 | 286 | 0.0 | 1.7 | 0.00 | 0.26 | 0.26 | 94 | 1007.3 |
| 20260507091316 | 51 | 297 | 0.9 | 4.3 | 0.05 | 0.26 | 0.26 | 94 | 1006.9 |
| 20260507090811 | 51 | 306 | 0.0 | 2.6 | 0.07 | 0.26 | 0.26 | 94 | 1006.6 |
| 20260507090308 | 51 | 325 | 0.0 | 2.6 | 0.05 | 0.25 | 0.25 | 94 | 1006.8 |
| 20260507085805 | 51 | 0 | 0.9 | 4.3 | 0.05 | 0.24 | 0.24 | 94 | 1006.7 |
| 20260507085301 | 51 | 343 | 1.7 | 1.7 | 0.07 | 0.24 | 0.24 | 93 | 1006.7 |
| 20260507084759 | 51 | 337 | 0.0 | 1.7 | 0.09 | 0.24 | 0.24 | 93 | 1006.6 |
| 20260507084255 | 52 | 356 | 0.0 | 1.7 | 0.09 | 0.23 | 0.23 | 93 | 1006.5 |
| 20260507083753 | 53 | 324 | 0.0 | 2.6 | 0.21 | 0.22 | 0.22 | 93 | 1006.6 |
| 20260507083249 | 54 | 254 | 0.0 | 1.7 | 0.38 | 0.21 | 0.21 | 93 | 1006.8 |
| 20260507082745 | 54 | 340 | 0.0 | 3.5 | 0.33 | 0.18 | 0.18 | 93 | 1006.6 |
| 20260507082241 | 54 | 279 | 0.0 | 7.0 | 0.33 | 0.15 | 0.15 | 93 | 1006.6 |
| 20260507081738 | 54 | 311 | 1.7 | 2.6 | 0.28 | 0.13 | 0.13 | 93 | 1006.9 |
| 20260507081234 | 54 | 0 | 0.0 | 3.5 | 0.12 | 0.09 | 0.09 | 93 | 1006.5 |
| 20260507080731 | 54 | 283 | 1.7 | 2.6 | 0.19 | 0.08 | 0.08 | 93 | 1006.5 |
| 20260507080227 | 55 | 289 | 1.7 | 3.5 | 0.26 | 0.07 | 0.07 | 92 | 1006.7 |
| 20260507075722 | 55 | 0 | 4.3 | 5.2 | 0.31 | 0.05 | 0.05 | 92 | 1006.7 |
| 20260507075219 | 54 | 270 | 2.6 | 7.8 | 0.19 | 0.03 | 0.03 | 92 | 1006.5 |
| 20260507074715 | 55 | 8 | 4.3 | 7.0 | 0.00 | 0.00 | 0.00 | 93 | 1006.2 |
| 20260507074214 | 54 | 309 | 1.7 | 2.6 | 0.00 | 0.00 | 0.00 | 93 | 1005.5 |
| 20260507073710 | 54 | 352 | 0.0 | 1.7 | 0.00 | 0.00 | 0.00 | 93 | 1005.7 |
| 20260507073206 | 54 | 75 | 1.7 | 5.2 | 0.00 | 0.00 | 0.00 | 93 | 1005.7 |
| 20260507072704 | 57 | 82 | 0.0 | 1.7 | 0.00 | 0.00 | 0.00 | 93 | 1005.4 |
| 20260507072201 | 57 | 261 | 0.0 | 0.9 | 0.00 | 0.00 | 0.00 | 93 | 1005.8 |
| 20260507071659 | 57 | 270 | 0.0 | 1.7 | 0.00 | 0.00 | 0.00 | 93 | 1005.7 |
| 20260507071155 | 57 | 286 | 0.0 | 0.9 | 0.00 | 0.00 | 0.00 | 93 | 1005.9 |
| 20260507070652 | 57 | 251 | 0.0 | 1.7 | 0.00 | 0.00 | 0.00 | 93 | 1005.9 |
| 20260507070149 | 57 | 286 | 0.0 | 0.0 | 0.00 | 0.00 | 0.00 | 93 | 1005.6 |
| 20260507065645 | 57 | 209 | 0.0 | 0.9 | 0.00 | 0.00 | 0.00 | 93 | 1005.7 |
| 20260507065142 | 57 | 8 | 0.0 | 1.7 | 0.00 | 0.00 | 0.00 | 93 | 1005.6 |
| 20260507064640 | 57 | 277 | 0.0 | 2.6 | 0.00 | 0.00 | 0.00 | 93 | 1005.6 |
| 20260507064138 | 57 | 215 | 0.9 | 2.6 | 0.00 | 0.00 | 0.00 | 93 | 1005.3 |
| 20260507063636 | 57 | 285 | 0.0 | 2.6 | 0.00 | 0.00 | 0.00 | 93 | 1005.4 |
| 20260507063132 | 57 | 240 | 0.9 | 7.0 | 0.00 | 0.00 | 0.00 | 93 | 1005.4 |
| 20260507062629 | 57 | 275 | 1.7 | 3.5 | 0.00 | 0.00 | 0.00 | 93 | 1005.7 |
| 20260507062127 | 57 | 237 | 2.6 | 5.2 | 0.00 | 0.00 | 0.00 | 93 | 1005.9 |
| 20260507061624 | 57 | 270 | 0.9 | 3.5 | 0.00 | 0.00 | 0.00 | 93 | 1005.9 |
| 20260507061122 | 57 | 240 | 0.0 | 4.3 | 0.00 | 0.00 | 0.00 | 93 | 1005.8 |
| 20260507060620 | 57 | 239 | 2.6 | 2.6 | 0.00 | 0.00 | 0.00 | 93 | 1005.9 |
| 20260507060116 | 57 | 195 | 3.5 | 6.1 | 0.00 | 0.00 | 0.00 | 93 | 1006.3 |
| 20260507055612 | 57 | 192 | 1.7 | 4.3 | 0.00 | 0.00 | 0.00 | 93 | 1006.1 |
| 20260507055108 | 57 | 195 | 1.7 | 5.2 | 0.00 | 0.00 | 0.00 | 93 | 1006.1 |
| 20260507054604 | 57 | 277 | 0.9 | 4.3 | 0.00 | 0.00 | 0.00 | 93 | 1006.1 |
| 20260507054101 | 57 | 213 | 1.7 | 6.1 | 0.00 | 0.00 | 0.00 | 93 | 1006.2 |
| 20260507053559 | 57 | 276 | 3.5 | 5.2 | 0.00 | 0.00 | 0.00 | 93 | 1006.3 |
| 20260507053058 | 57 | 215 | 2.6 | 8.7 | 0.00 | 0.00 | 0.00 | 93 | 1006.1 |
| 20260507052555 | 57 | 254 | 1.7 | 5.2 | 0.00 | 0.00 | 0.00 | 93 | 1006.0 |
| 20260507052051 | 57 | 341 | 3.5 | 6.1 | 0.00 | 0.00 | 0.00 | 93 | 1006.1 |
| 20260507051549 | 57 | 264 | 1.7 | 4.3 | 0.00 | 0.00 | 0.00 | 93 | 1006.4 |
| 20260507051046 | 57 | 205 | 5.2 | 5.2 | 0.00 | 0.00 | 0.00 | 93 | 1006.5 |
| 20260507050542 | 57 | 201 | 2.6 | 5.2 | 0.00 | 0.00 | 0.00 | 93 | 1006.5 |
| 20260507050039 | 57 | 239 | 1.7 | 3.5 | 0.00 | 0.00 | 0.00 | 93 | 1006.3 |
| 20260507045535 | 57 | 201 | 2.6 | 5.2 | 0.00 | 0.00 | 0.00 | 93 | 1006.4 |
| 20260507045033 | 57 | 209 | 0.9 | 7.0 | 0.00 | 0.00 | 0.00 | 93 | 1006.2 |
| 20260507044529 | 57 | 251 | 4.3 | 4.3 | 0.00 | 0.00 | 0.00 | 93 | 1006.2 |
| 20260507044026 | 57 | 248 | 1.7 | 4.3 | 0.00 | 0.00 | 0.00 | 93 | 1006.2 |
| 20260507043522 | 57 | 270 | 0.9 | 5.2 | 0.00 | 0.00 | 0.00 | 93 | 1006.3 |
| 20260507043020 | 57 | 249 | 2.6 | 7.8 | 0.00 | 0.00 | 0.00 | 93 | 1006.0 |
| 20260507042515 | 57 | 213 | 0.0 | 7.0 | 0.00 | 0.00 | 0.00 | 93 | 1006.2 |
| 20260507042011 | 57 | 216 | 4.3 | 9.6 | 0.00 | 0.00 | 0.00 | 93 | 1006.1 |
| 20260507041508 | 57 | 206 | 3.5 | 3.5 | 0.00 | 0.00 | 0.00 | 93 | 1006.2 |
| 20260507041005 | 57 | 230 | 1.7 | 7.8 | 0.00 | 0.00 | 0.00 | 93 | 1006.1 |
| 20260507040501 | 57 | 243 | 2.6 | 11.3 | 0.00 | 0.00 | 0.00 | 93 | 1006.1 |
| 20260507035956 | 57 | 235 | 2.6 | 7.0 | 0.00 | 0.10 | 0.10 | 93 | 1006.4 |
| 20260507035454 | 57 | 279 | 3.5 | 8.7 | 0.00 | 0.10 | 0.10 | 93 | 1006.4 |
| 20260507034950 | 57 | 270 | 0.0 | 6.1 | 0.00 | 0.10 | 0.10 | 93 | 1006.6 |
| 20260507034447 | 57 | 195 | 3.5 | 7.8 | 0.00 | 0.10 | 0.10 | 93 | 1006.7 |
| 20260507033945 | 57 | 238 | 7.8 | 7.8 | 0.00 | 0.10 | 0.10 | 93 | 1006.4 |
| 20260507033443 | 57 | 239 | 1.7 | 13.0 | 0.00 | 0.10 | 0.10 | 93 | 1006.4 |
| 20260507032940 | 57 | 234 | 5.2 | 7.8 | 0.00 | 0.10 | 0.10 | 93 | 1006.1 |
| 20260507032437 | 57 | 202 | 4.3 | 12.2 | 0.00 | 0.10 | 0.10 | 93 | 1006.4 |
| 20260507031932 | 57 | 225 | 3.5 | 10.4 | 0.00 | 0.10 | 0.10 | 93 | 1006.0 |
| 20260507031429 | 57 | 227 | 5.2 | 7.8 | 0.00 | 0.10 | 0.10 | 93 | 1006.0 |
| 20260507030926 | 57 | 230 | 1.7 | 6.1 | 0.00 | 0.10 | 0.10 | 93 | 1005.9 |
| 20260507030423 | 57 | 252 | 1.7 | 7.8 | 0.00 | 0.10 | 0.10 | 93 | 1006.2 |
| 20260507025920 | 57 | 253 | 4.3 | 8.7 | 0.00 | 0.10 | 0.10 | 94 | 1005.9 |
| 20260507025418 | 57 | 214 | 5.2 | 8.7 | 0.00 | 0.10 | 0.10 | 94 | 1005.9 |
| 20260507024915 | 57 | 270 | 2.6 | 7.8 | 0.00 | 0.10 | 0.10 | 94 | 1005.6 |
| 20260507024413 | 57 | 230 | 6.1 | 13.9 | 0.00 | 0.10 | 0.10 | 94 | 1005.8 |
| 20260507023908 | 57 | 180 | 0.9 | 11.3 | 0.00 | 0.10 | 0.10 | 94 | 1005.9 |
| 20260507023405 | 57 | 237 | 4.3 | 9.6 | 0.00 | 0.10 | 0.10 | 94 | 1006.0 |
| 20260507022903 | 57 | 171 | 2.6 | 5.2 | 0.00 | 0.10 | 0.10 | 94 | 1005.9 |
| 20260507022359 | 57 | 202 | 3.5 | 7.8 | 0.00 | 0.10 | 0.10 | 94 | 1005.8 |
| 20260507021855 | 57 | 254 | 1.7 | 5.2 | 0.00 | 0.10 | 0.10 | 94 | 1006.0 |
| 20260507021350 | 57 | 270 | 2.6 | 12.2 | 0.00 | 0.10 | 0.10 | 94 | 1006.2 |
| 20260507020849 | 57 | 270 | 0.0 | 6.1 | 0.00 | 0.10 | 0.10 | 94 | 1006.1 |
| 20260507020345 | 57 | 226 | 3.5 | 11.3 | 0.00 | 0.10 | 0.10 | 94 | 1006.4 |
| 20260507015842 | 57 | 206 | 3.5 | 5.2 | 0.00 | 0.10 | 0.10 | 94 | 1006.5 |
| 20260507015340 | 57 | 210 | 1.7 | 8.7 | 0.00 | 0.10 | 0.10 | 94 | 1006.3 |
| 20260507014837 | 57 | 243 | 2.6 | 7.8 | 0.00 | 0.10 | 0.10 | 94 | 1006.7 |
| 20260507014333 | 57 | 256 | 2.6 | 5.2 | 0.00 | 0.10 | 0.10 | 94 | 1006.3 |
| 20260507013829 | 57 | 235 | 1.7 | 5.2 | 0.00 | 0.10 | 0.10 | 94 | 1006.5 |
| 20260507013326 | 57 | 219 | 0.0 | 4.3 | 0.00 | 0.10 | 0.10 | 94 | 1006.6 |
| 20260507012824 | 57 | 228 | 4.3 | 9.6 | 0.00 | 0.10 | 0.10 | 94 | 1006.9 |
| 20260507012320 | 57 | 210 | 2.6 | 7.8 | 0.00 | 0.10 | 0.10 | 94 | 1006.4 |
| 20260507011817 | 57 | 243 | 1.7 | 7.8 | 0.00 | 0.10 | 0.10 | 94 | 1006.6 |
| 20260507011314 | 57 | 197 | 4.3 | 13.0 | 0.00 | 0.10 | 0.10 | 94 | 1006.7 |
| 20260507010814 | 57 | 202 | 4.3 | 7.8 | 0.00 | 0.10 | 0.10 | 94 | 1006.4 |
| 20260507010309 | 57 | 236 | 1.7 | 6.1 | 0.00 | 0.10 | 0.10 | 94 | 1006.6 |
| 20260507005807 | 57 | 254 | 0.9 | 7.0 | 0.00 | 0.10 | 0.10 | 94 | 1006.5 |
| 20260507005305 | 57 | 194 | 3.5 | 11.3 | 0.00 | 0.10 | 0.10 | 94 | 1006.6 |
| 20260507004800 | 57 | 204 | 4.3 | 6.1 | 0.00 | 0.10 | 0.10 | 94 | 1006.7 |
| 20260507004258 | 57 | 241 | 3.5 | 11.3 | 0.00 | 0.10 | 0.10 | 94 | 1006.7 |
| 20260507003754 | 57 | 237 | 8.7 | 12.2 | 0.00 | 0.10 | 0.10 | 94 | 1006.6 |
| 20260507003249 | 57 | 160 | 0.0 | 12.2 | 0.02 | 0.10 | 0.10 | 94 | 1007.0 |
| 20260507002745 | 57 | 206 | 3.5 | 12.2 | 0.02 | 0.10 | 0.10 | 94 | 1006.6 |
| 20260507002241 | 57 | 233 | 7.8 | 11.3 | 0.07 | 0.10 | 0.10 | 94 | 1006.5 |
| 20260507001738 | 57 | 231 | 2.6 | 9.6 | 0.12 | 0.10 | 0.10 | 94 | 1006.4 |
| 20260507001236 | 58 | 202 | 5.2 | 12.2 | 0.05 | 0.09 | 0.09 | 94 | 1006.6 |
| 20260507000732 | 57 | 195 | 1.7 | 8.7 | 0.00 | 0.08 | 0.08 | 94 | 1006.7 |
| 20260507000228 | 57 | 195 | 3.5 | 3.5 | 0.00 | 0.08 | 0.08 | 94 | 1006.6 |
| 20260506235725 | 57 | 212 | 2.6 | 7.0 | 0.02 | 0.08 | 0.08 | 93 | 1006.6 |
| 20260506235220 | 57 | 180 | 0.9 | 5.2 | 0.05 | 0.08 | 0.08 | 93 | 1006.7 |
| 20260506234717 | 57 | 219 | 1.7 | 5.2 | 0.02 | 0.07 | 0.07 | 93 | 1006.6 |
| 20260506234215 | 57 | 183 | 2.6 | 4.3 | 0.00 | 0.07 | 0.07 | 93 | 1006.9 |
| 20260506233712 | 57 | 227 | 2.6 | 8.7 | 0.02 | 0.07 | 0.07 | 93 | 1007.0 |
| 20260506233208 | 58 | 219 | 1.7 | 8.7 | 0.05 | 0.07 | 0.07 | 93 | 1006.6 |
| 20260506232705 | 58 | 285 | 0.0 | 7.8 | 0.12 | 0.07 | 0.07 | 93 | 1007.0 |
| 20260506232200 | 58 | 290 | 1.7 | 9.6 | 0.12 | 0.06 | 0.06 | 92 | 1006.8 |
| 20260506231658 | 58 | 274 | 2.6 | 3.5 | 0.05 | 0.05 | 0.05 | 92 | 1006.8 |
| 20260506231156 | 58 | 213 | 3.5 | 6.1 | 0.02 | 0.04 | 0.04 | 92 | 1006.6 |
| 20260506230652 | 58 | 320 | 2.6 | 4.3 | 0.00 | 0.04 | 0.04 | 92 | 1006.8 |
| 20260506230149 | 58 | 184 | 5.2 | 7.8 | 0.00 | 0.04 | 0.04 | 91 | 1006.7 |
| 20260506225646 | 59 | 210 | 4.3 | 9.6 | 0.02 | 0.04 | 0.04 | 91 | 1006.9 |
| 20260506225143 | 59 | 180 | 2.6 | 6.1 | 0.02 | 0.04 | 0.04 | 91 | 1006.8 |
| 20260506224639 | 59 | 180 | 0.0 | 7.8 | 0.02 | 0.04 | 0.04 | 91 | 1007.1 |
| 20260506224136 | 59 | 177 | 2.6 | 5.2 | 0.02 | 0.04 | 0.04 | 90 | 1006.9 |
| 20260506223632 | 59 | 159 | 3.5 | 7.8 | 0.00 | 0.03 | 0.03 | 90 | 1007.3 |
| 20260506223128 | 59 | 180 | 3.5 | 8.7 | 0.02 | 0.03 | 0.03 | 90 | 1007.2 |
| 20260506222625 | 60 | 180 | 2.6 | 9.6 | 0.00 | 0.03 | 0.03 | 90 | 1007.1 |
| 20260506222121 | 60 | 286 | 0.0 | 5.2 | 0.00 | 0.03 | 0.03 | 90 | 1007.2 |
| 20260506221619 | 60 | 199 | 1.7 | 7.0 | 0.00 | 0.03 | 0.03 | 89 | 1007.3 |
| 20260506221117 | 60 | 227 | 4.3 | 8.7 | 0.00 | 0.03 | 0.03 | 89 | 1007.1 |
| 20260506220613 | 60 | 244 | 3.5 | 5.2 | 0.00 | 0.03 | 0.03 | 89 | 1007.4 |
| 20260506220109 | 60 | 223 | 4.3 | 9.6 | 0.00 | 0.03 | 0.03 | 89 | 1007.3 |
| 20260506215606 | 61 | 132 | 3.5 | 7.8 | 0.00 | 0.03 | 0.03 | 89 | 1007.4 |
| 20260506215101 | 61 | 183 | 2.6 | 6.1 | 0.00 | 0.03 | 0.03 | 89 | 1007.2 |
| 20260506214558 | 61 | 205 | 2.6 | 10.4 | 0.05 | 0.03 | 0.03 | 88 | 1007.2 |
| 20260506214055 | 62 | 222 | 5.2 | 7.8 | 0.05 | 0.03 | 0.03 | 88 | 1007.2 |